BEIDOU-3 M3 (C27)

Last updated on Sun Feb 12 2023 00:03:20 GMT+0000 (Coordinated Universal Time)

1 43107U 18003A 23041.99164720 -.00000077 00000+0 00000+0 0 9998 2 43107 55.2229 344.5142 0004405 42.1841 142.9646 1.86232338 34597

Satellite not in orbit

BEIDOU-3 M3 (C27)